Date_and_time,latitude,longitude,wind_speed,RelWindDirFrom,WindDirFrom,air_pressure,air_temperature,relative_humidity,Temp,platform_speed_wrt_ground,air_pressure_at_mean_sea_level,platform_orientation
2019-01-01 23:50,50.6304416666667,-96.9807683333333,17.3,20.3,167,989.17,-19.8,64,0.34,0.0,1019.26,152.4
2019-01-02 00:00,50.6304416666667,-96.98077,16.1,20.0,168,989.19,-20.0,65,0.34,0.0,1019.28,165.5
2019-01-02 00:10,50.6304516666667,-96.9807866666667,16.6,20.0,169,989.04,-20.0,64,0.33,0.0,1019.12,165.5
2019-01-02 00:20,50.630445,-96.9807683333333,16.3,19.1,166,988.75,-19.9,65,0.33,0.0,1018.81,165.5
2019-01-02 00:30,50.6304466666667,-96.98077,17.1,20.2,166,988.37,-19.9,65,0.34,0.0,1018.42,165.5
2019-01-02 00:40,50.6304466666667,-96.98077,17.1,19.8,168,988.20,-19.7,65,0.34,0.0,1018.24,165.5
2019-01-02 00:50,50.630445,-96.98077,16.0,19.7,166,987.92,-19.6,66,0.34,0.0,1017.95,165.5
2019-01-02 01:00,50.6304183333333,-96.9807766666667,17.5,20.9,166,987.58,-19.4,66,0.34,0.0,1017.60,360.0
2019-01-02 01:10,50.63043,-96.9807716666667,17.5,20.7,166,987.28,-19.2,66,0.34,0.0,1017.29,360.0
2019-01-02 01:20,50.6304383333333,-96.9807733333333,17.0,20.7,167,987.12,-19.0,66,0.34,0.0,1017.11,360.0
2019-01-02 01:30,50.63044,-96.98077,16.5,20.2,165,986.95,-18.8,66,0.34,0.0,1016.92,360.0
2019-01-02 01:40,50.6304416666667,-96.9807716666667,17.6,21.3,168,986.68,-18.5,66,0.34,0.0,1016.64,360.0
2019-01-02 01:50,50.63044,-96.9807716666667,17.2,20.9,166,986.32,-18.4,66,0.34,0.0,1016.28,360.0
2019-01-02 02:00,50.63044,-96.9807733333333,17.0,20.1,167,986.03,-18.2,66,0.34,0.0,1015.96,345.5
2019-01-02 02:10,50.63044,-96.9807316666667,17.6,22.0,166,985.59,-18.1,66,0.34,0.0,1015.50,345.5
2019-01-02 02:20,50.6304416666667,-96.980755,17.1,21.5,169,985.40,-17.8,65,0.34,0.0,1015.28,345.5
2019-01-02 02:30,50.63044,-96.9807633333333,17.3,22.5,168,985.11,-17.6,65,0.34,0.0,1014.96,345.5
2019-01-02 02:40,50.630435,-96.98078,15.5,18.8,165,984.97,-17.5,66,0.34,0.0,1014.80,345.5
2019-01-02 02:50,50.63044,-96.980775,14.5,18.3,163,984.78,-17.5,67,0.34,0.0,1014.60,345.5
2019-01-02 03:00,50.6304616666667,-96.980805,13.4,16.8,163,984.63,-17.5,67,0.36,0.0,1014.43,313.8
2019-01-02 03:10,50.6304433333333,-96.980765,14.0,19.8,168,984.39,-17.3,66,0.36,0.0,1014.16,313.8
2019-01-02 03:20,50.6304433333333,-96.9807666666667,14.0,19.2,169,983.98,-17.2,66,0.35,0.0,1013.71,313.8
2019-01-02 03:30,50.6304433333333,-96.980765,14.4,20.3,170,983.70,-17.3,66,0.35,0.0,1013.42,313.8
2019-01-02 03:40,50.6304433333333,-96.980765,13.5,19.5,173,983.53,-17.4,67,0.34,0.0,1013.24,313.8
2019-01-02 03:50,50.630445,-96.9807666666667,14.8,20.8,171,983.08,-17.4,67,0.34,0.0,1012.76,313.8
2019-01-02 04:00,50.630445,-96.9807666666667,14.5,19.3,167,982.74,-17.4,68,0.34,0.0,1012.41,13.3
2019-01-02 04:10,50.6304433333333,-96.9807666666667,14.2,16.9,169,982.51,-17.4,68,0.34,0.0,1012.16,13.3
2019-01-02 04:20,50.6304433333333,-96.9807683333333,15.7,20.6,166,982.03,-17.3,68,0.34,0.0,1011.64,13.3
2019-01-02 04:30,50.6304433333333,-96.9807683333333,15.7,19.1,163,981.69,-17.3,69,0.34,0.0,1011.30,13.3
2019-01-02 04:40,50.630445,-96.9807683333333,16.0,19.3,164,981.48,-17.4,70,0.34,0.0,1011.08,13.3
2019-01-02 04:50,50.630445,-96.9807683333333,17.5,21.4,168,981.29,-17.3,70,0.34,0.0,1010.87,13.3
2019-01-02 05:00,50.630445,-96.9807683333333,16.6,20.1,167,981.22,-17.3,70,0.34,0.0,1010.79,90.0
2019-01-02 05:10,50.630445,-96.9807666666667,16.0,20.9,164,980.99,-17.4,70,0.34,0.0,1010.55,90.0
2019-01-02 05:20,50.630445,-96.9807666666667,15.6,19.0,166,980.72,-17.4,70,0.34,0.0,1010.28,90.0
2019-01-02 05:30,50.630445,-96.98079,17.6,23.5,166,980.29,-17.3,70,0.34,0.0,1009.84,90.0
2019-01-02 05:40,50.6304433333333,-96.9807783333333,17.1,22.3,167,980.02,-17.2,70,0.34,0.0,1009.55,90.0
2019-01-02 05:50,50.6304416666667,-96.9807933333333,17.9,21.7,170,979.82,-17.1,70,0.34,0.0,1009.35,90.0
2019-01-02 06:00,50.6304516666667,-96.9807766666667,18.0,23.6,170,979.60,-17.0,70,0.35,0.0,1009.11,116.7
2019-01-02 06:10,50.6304483333333,-96.980775,16.5,21.1,169,979.55,-17.0,70,0.35,0.0,1009.06,116.7
2019-01-02 06:20,50.630445,-96.980775,17.6,22.6,169,979.27,-16.9,70,0.35,0.0,1008.77,116.7
2019-01-02 06:30,50.6304466666667,-96.9807733333333,16.6,20.4,167,979.17,-17.0,71,0.35,0.0,1008.66,116.7
2019-01-02 06:40,50.6304466666667,-96.9807733333333,17.1,21.5,167,979.02,-17.0,70,0.35,0.0,1008.51,116.7
2019-01-02 06:50,50.6304466666667,-96.9807733333333,16.8,21.0,168,978.89,-17.0,71,0.34,0.0,1008.38,116.7
2019-01-02 07:00,50.630445,-96.9807716666667,17.5,21.2,168,978.64,-17.0,71,0.34,0.0,1008.13,270.0
2019-01-02 07:10,50.630445,-96.9807716666667,18.6,25.1,167,978.39,-16.9,71,0.34,0.0,1007.86,270.0
2019-01-02 07:20,50.630445,-96.9807716666667,18.2,22.4,167,978.38,-16.8,71,0.34,0.0,1007.84,270.0
2019-01-02 07:30,50.6304283333333,-96.9807783333333,18.4,22.6,167,978.27,-16.7,71,0.34,0.0,1007.72,270.0
2019-01-02 07:40,50.630435,-96.980765,18.6,23.0,166,978.27,-16.7,72,0.35,0.0,1007.71,270.0
2019-01-02 07:50,50.6304383333333,-96.9807616666667,17.1,20.5,165,978.23,-16.7,74,0.35,0.0,1007.66,270.0
2019-01-02 08:00,50.6304383333333,-96.9807633333333,18.1,22.7,167,977.98,-16.6,74,0.35,0.0,1007.40,90.0
2019-01-02 08:10,50.6304383333333,-96.980765,18.3,21.2,166,977.73,-16.7,76,0.35,0.0,1007.14,90.0
2019-01-02 08:20,50.6304266666667,-96.9807733333333,17.6,22.0,165,977.57,-16.7,78,0.35,0.0,1006.97,90.0
2019-01-02 08:30,50.6304416666667,-96.98077,18.1,22.5,168,977.51,-16.7,78,0.35,0.0,1006.92,90.0
2019-01-02 08:40,50.6304433333333,-96.9807516666667,18.1,23.4,168,977.54,-16.6,78,0.37,0.0,1006.95,90.0
2019-01-02 08:50,50.6304433333333,-96.9807633333333,16.0,20.5,168,977.59,-16.5,79,0.37,0.0,1006.99,90.0
2019-01-02 09:00,50.6304483333333,-96.9807716666667,16.8,19.6,166,977.49,-16.5,79,0.37,0.0,1006.88,360.0
2019-01-02 09:10,50.63045,-96.9807733333333,15.3,19.0,167,977.51,-16.4,80,0.37,0.0,1006.89,360.0
2019-01-02 09:20,50.63043,-96.9807666666667,14.2,18.2,171,977.57,-16.3,80,0.37,0.0,1006.94,360.0
2019-01-02 09:30,50.63043,-96.9807783333333,13.7,16.9,171,977.59,-16.2,80,0.37,0.0,1006.96,360.0
2019-01-02 09:40,50.6304716666667,-96.9807833333333,12.4,15.5,175,977.66,-16.1,81,0.37,0.0,1007.02,360.0
2019-01-02 09:50,50.6304533333333,-96.980775,11.4,14.3,174,977.53,-16.0,81,0.37,0.0,1006.87,360.0
2019-01-02 10:00,50.630455,-96.9807716666667,10.6,13.7,174,977.42,-15.9,82,0.39,0.0,1006.77,360.0
2019-01-02 10:10,50.6304366666667,-96.9807383333333,9.7,12.8,170,977.40,-15.9,83,0.39,0.0,1006.75,360.0
2019-01-02 10:20,50.6304433333333,-96.9807716666667,8.8,11.7,169,977.28,-15.9,83,0.38,0.0,1006.62,360.0
2019-01-02 10:30,50.6304466666667,-96.9807733333333,8.4,14.1,168,977.21,-15.9,83,0.38,0.0,1006.55,360.0
2019-01-02 10:40,50.630445,-96.98077,8.5,12.1,168,977.30,-15.8,83,0.37,0.0,1006.62,360.0
2019-01-02 10:50,50.6304416666667,-96.9807733333333,10.6,13.9,167,977.07,-15.8,82,0.37,0.0,1006.38,360.0
2019-01-02 11:00,50.6304183333333,-96.9807766666667,9.9,14.2,162,976.98,-15.8,83,0.37,0.0,1006.28,360.0
2019-01-02 11:10,50.63043,-96.9807783333333,10.0,12.1,165,976.92,-15.8,83,0.37,0.0,1006.22,360.0
2019-01-02 11:20,50.63044,-96.9807666666667,9.6,11.8,173,976.75,-15.9,84,0.37,0.0,1006.04,360.0
2019-01-02 11:30,50.63044,-96.9807616666667,9.4,11.8,174,976.70,-16.0,83,0.37,0.0,1005.99,360.0
2019-01-02 11:40,50.6304533333333,-96.9807616666667,9.4,13.1,175,976.60,-16.1,83,0.37,0.0,1005.89,360.0
2019-01-02 11:50,50.6304483333333,-96.98077,7.2,9.1,175,976.74,-16.3,83,0.38,0.0,1006.04,360.0
2019-01-02 12:00,50.630445,-96.9807783333333,7.2,9.1,166,976.59,-16.5,84,0.38,0.0,1005.90,234.7
2019-01-02 12:10,50.6304483333333,-96.9807716666667,7.8,9.3,170,976.57,-16.7,85,0.38,0.0,1005.89,234.7
2019-01-02 12:20,50.6304466666667,-96.9807716666667,6.1,8.2,174,976.75,-16.9,86,0.38,0.0,1006.08,234.7
2019-01-02 12:30,50.630445,-96.9807716666667,5.2,6.7,169,976.90,-17.0,86,0.38,0.0,1006.24,234.7
2019-01-02 12:40,50.6304416666667,-96.9807666666667,4.8,7.4,169,977.09,-17.0,86,0.40,0.0,1006.43,234.7
2019-01-02 12:50,50.6304366666667,-96.9807583333333,3.8,5.3,171,977.32,-17.2,87,0.42,0.0,1006.68,234.7
2019-01-02 13:00,50.63044,-96.980775,4.0,5.3,172,977.46,-17.1,87,0.43,0.0,1006.83,142.0
2019-01-02 13:10,50.6304416666667,-96.980775,3.8,4.5,183,977.52,-17.2,87,0.42,0.0,1006.90,142.0
2019-01-02 13:20,50.630445,-96.9807716666667,4.4,5.4,174,977.41,-17.3,88,0.41,0.0,1006.78,142.0
2019-01-02 13:30,50.630445,-96.980775,4.0,5.3,178,977.58,-17.3,88,0.41,0.0,1006.98,142.0
2019-01-02 13:40,50.630445,-96.980775,3.5,4.3,169,977.69,-17.5,88,0.42,0.0,1007.11,142.0
2019-01-02 13:50,50.630445,-96.980775,4.0,5.4,160,977.53,-17.3,89,0.42,0.0,1006.95,142.0
2019-01-02 14:00,50.6304416666667,-96.98078,4.6,7.3,158,977.46,-17.1,89,0.42,0.0,1006.88,339.9
2019-01-02 14:10,50.6304383333333,-96.9807683333333,5.2,7.3,166,977.42,-16.6,89,0.41,0.0,1006.81,339.9
2019-01-02 14:20,50.6304433333333,-96.98079,4.7,6.9,178,977.91,-16.3,88,0.41,0.0,1007.30,339.9
2019-01-02 14:30,50.630445,-96.9807783333333,4.9,6.6,176,977.91,-16.2,88,0.41,0.0,1007.31,339.9
2019-01-02 14:40,50.6304383333333,-96.9807566666667,6.9,8.9,167,977.80,-16.2,88,0.41,0.0,1007.20,339.9
2019-01-02 14:50,50.630435,-96.98076,7.7,9.3,169,977.77,-16.1,88,0.41,0.0,1007.16,339.9
2019-01-02 15:00,50.6304383333333,-96.980765,7.2,9.0,174,977.85,-16.0,88,0.42,0.0,1007.24,90.0
2019-01-02 15:10,50.6304516666667,-96.9807766666667,6.8,8.7,178,978.05,-15.9,88,0.42,0.0,1007.44,90.0
2019-01-02 15:20,50.6304466666667,-96.9807716666667,7.6,9.4,175,978.01,-15.7,88,0.41,0.0,1007.39,90.0
2019-01-02 15:30,50.630475,-96.980785,7.4,9.0,172,977.91,-15.6,88,0.41,0.0,1007.30,90.0
2019-01-02 15:40,50.6304366666667,-96.9807466666667,7.6,9.8,173,977.78,-15.5,88,0.42,0.0,1007.14,90.0
2019-01-02 15:50,50.6304466666667,-96.9807783333333,7.5,9.6,175,977.62,-15.4,88,0.41,0.0,1006.96,90.0
2019-01-02 16:00,50.6304283333333,-96.9807516666667,7.0,8.9,180,977.73,-15.1,88,0.41,0.0,1007.03,148.9
2019-01-02 16:10,50.63044,-96.9807683333333,6.8,10.2,189,978.05,-14.9,87,0.42,0.0,1007.32,148.9
2019-01-02 16:20,50.6304466666667,-96.9807716666667,8.6,10.7,188,977.91,-14.8,87,0.42,0.0,1007.18,148.9
2019-01-02 16:30,50.6304483333333,-96.9807733333333,8.9,11.7,187,977.78,-14.7,87,0.42,0.0,1007.03,148.9
2019-01-02 16:40,50.6304533333333,-96.9807716666667,8.2,11.2,196,978.08,-14.5,87,0.42,0.0,1007.32,148.9
2019-01-02 16:50,50.630455,-96.980765,8.0,11.0,191,977.91,-14.4,86,0.42,0.0,1007.14,148.9
2019-01-02 17:00,50.6304583333333,-96.9807683333333,8.3,10.8,195,977.80,-14.3,86,0.42,0.0,1007.01,31.1
2019-01-02 17:10,50.63046,-96.9807683333333,7.8,10.7,203,978.01,-14.3,86,0.42,0.0,1007.23,31.1
2019-01-02 17:20,50.6304583333333,-96.98077,7.4,10.1,203,978.01,-14.3,86,0.42,0.0,1007.22,31.1
2019-01-02 17:30,50.6304533333333,-96.9807616666667,7.0,9.7,201,977.93,-14.1,86,0.42,0.0,1007.12,31.1
2019-01-02 17:40,50.6304483333333,-96.9807483333333,7.2,8.9,197,977.72,-14.0,87,0.42,0.0,1006.88,31.1
2019-01-02 17:50,50.6304516666667,-96.98075,6.0,8.4,203,977.73,-13.7,86,0.43,0.0,1006.86,31.1
2019-01-02 18:00,50.6304483333333,-96.9807566666667,6.6,8.4,195,977.55,-13.6,86,0.43,0.0,1006.66,48.3
2019-01-02 18:10,50.63045,-96.9807566666667,6.4,9.4,209,977.74,-13.3,86,0.43,0.0,1006.84,48.3
2019-01-02 18:20,50.63045,-96.9807583333333,7.0,8.9,207,977.60,-13.3,85,0.44,0.0,1006.69,48.3
2019-01-02 18:30,50.63045,-96.98076,5.8,7.5,211,977.61,-13.1,85,0.44,0.0,1006.67,48.3
2019-01-02 18:40,50.63045,-96.98076,5.2,7.2,209,977.62,-12.8,85,0.44,0.0,1006.66,48.3
2019-01-02 18:50,50.6304483333333,-96.9807616666667,4.4,6.3,200,977.73,-12.4,84,0.44,0.0,1006.75,48.3
2019-01-02 19:00,50.6304466666667,-96.9807783333333,4.2,5.8,205,977.98,-12.0,83,0.44,0.0,1006.98,316.2
2019-01-02 19:10,50.6304483333333,-96.980775,4.4,5.9,191,977.88,-11.8,84,0.44,0.0,1006.87,316.2
2019-01-02 19:20,50.6304483333333,-96.980775,4.8,6.2,188,977.56,-11.8,85,0.44,0.0,1006.52,316.2
2019-01-02 19:30,50.6304483333333,-96.980775,4.9,6.7,189,977.53,-11.7,85,0.44,0.0,1006.48,316.2
2019-01-02 19:40,50.6304483333333,-96.9807733333333,5.2,6.7,187,977.34,-11.6,86,0.44,0.0,1006.26,316.2
2019-01-02 19:50,50.6304483333333,-96.9807733333333,4.7,6.3,193,977.46,-11.4,85,0.45,0.0,1006.37,316.2
2019-01-02 20:00,50.6304466666667,-96.980775,5.2,6.9,194,977.41,-11.2,84,0.45,0.0,1006.29,194.5
2019-01-02 20:10,50.6304466666667,-96.980775,6.2,7.6,171,976.85,-11.2,85,0.45,0.0,1005.71,194.5
2019-01-02 20:20,50.6304466666667,-96.980775,7.3,8.4,173,976.68,-11.3,87,0.45,0.0,1005.53,194.5
2019-01-02 20:30,50.6304466666667,-96.980775,6.8,8.3,180,976.82,-11.2,87,0.45,0.0,1005.65,194.5
2019-01-02 20:40,50.6304466666667,-96.980775,6.4,7.8,179,976.95,-11.1,87,0.46,0.0,1005.76,194.5
2019-01-02 20:50,50.6304466666667,-96.9807733333333,5.6,6.8,183,977.11,-10.9,87,0.45,0.0,1005.89,194.5
2019-01-02 21:00,50.6304466666667,-96.9807733333333,6.1,7.8,178,976.98,-10.8,88,0.45,0.0,1005.74,270.0
2019-01-02 21:10,50.630445,-96.9807733333333,6.4,8.4,182,976.99,-10.7,89,0.45,0.0,1005.74,270.0
2019-01-02 21:20,50.6304533333333,-96.98078,6.8,8.2,185,977.23,-10.6,89,0.46,0.0,1005.98,270.0
2019-01-02 21:30,50.6304433333333,-96.9807833333333,7.7,9.9,181,977.05,-10.6,89,0.46,0.0,1005.78,270.0
2019-01-02 21:40,50.63044,-96.9807783333333,7.1,9.2,183,977.15,-10.5,91,0.46,0.0,1005.88,270.0
2019-01-02 21:50,50.63044,-96.9807733333333,7.2,9.3,176,977.08,-10.4,92,0.46,0.0,1005.79,270.0
2019-01-02 22:00,50.6304416666667,-96.9807716666667,7.6,9.9,179,977.16,-10.3,93,0.47,0.0,1005.86,125.3
2019-01-02 22:10,50.6304483333333,-96.9807566666667,8.1,10.5,179,977.19,-10.1,93,0.47,0.0,1005.89,125.3
2019-01-02 22:20,50.630445,-96.9807616666667,8.0,10.6,180,977.18,-10.0,93,0.47,0.0,1005.87,125.3
2019-01-02 22:30,50.6304433333333,-96.980765,7.8,10.1,180,977.00,-9.9,93,0.48,0.0,1005.67,125.3
2019-01-02 22:40,50.6304433333333,-96.9807633333333,7.4,9.4,181,976.89,-9.8,94,0.48,0.0,1005.55,125.3
2019-01-02 22:50,50.6304416666667,-96.98076,8.3,11.1,182,976.88,-9.7,95,0.48,0.0,1005.52,125.3
2019-01-02 23:00,50.63045,-96.98076,9.1,11.5,176,976.68,-9.6,95,0.48,0.0,1005.31,54.7
2019-01-02 23:10,50.6304533333333,-96.9807616666667,8.2,10.1,177,976.72,-9.5,96,0.48,0.0,1005.33,54.7
2019-01-02 23:20,50.6304633333333,-96.9807766666667,6.8,8.5,184,976.92,-9.3,96,0.48,0.0,1005.53,54.7
2019-01-02 23:30,50.630455,-96.98076,7.8,10.2,176,976.65,-9.2,96,0.48,0.0,1005.24,54.7
2019-01-02 23:40,50.6304533333333,-96.9807616666667,8.6,11.3,183,976.69,-9.0,97,0.48,0.0,1005.26,54.7
2019-01-02 23:50,50.6304533333333,-96.9807633333333,9.6,12.4,180,976.38,-8.7,97,0.48,0.0,1004.92,54.7
